Theta_e
319 320 320 321 325 331 332 330 332 331 328 324 322 322 320 323 324 323 322 322 323 321 320 319 319 319 320 319 319 321 320 321 322 320 322 324 322 324 322 317 315 314 313 312 314 316 315 318 320 321 323 325 327 329 330 332 333 334 335 336 337 336 337 339 339 338 338 337 337 337 336 336 336 336 334 333 332 331 330 328 326 325 324 322 320 319 318 317 316 314 313 311 310 311 311 318 329
318 320 321 323 327 332 332 329 329 329 325 320 321 321 321 323 323 322 321 321 321 320 320 319 319 319 319 320 320 320 320 320 320 320 320 319 319 322 318 313 313 312 313 312 313 318 318 317 319 321 322 324 324 326 327 330 332 334 334 335 336 337 337 337 337 337 339 338 337 337 337 337 336 336 335 335 333 332 331 330 328 325 322 322 323 322 319 316 315 313 312 312 310 310 311 316 326
318 319 324 328 329 330 331 329 328 325 322 320 321 322 322 323 321 321 320 320 320 319 319 319 319 320 319 320 319 318 319 319 318 319 318 318 318 316 314 312 312 312 314 316 314 316 319 318 319 321 322 323 322 323 324 326 330 332 333 334 335 336 336 336 336 336 337 337 337 337 337 336 336 336 335 335 334 333 332 329 328 326 324 324 326 325 322 317 314 313 312 311 311 311 310 314 322
318 318 324 330 331 330 332 331 329 323 319 320 320 322 322 322 321 320 320 319 319 319 319 319 319 320 319 318 318 318 318 318 318 319 319 319 315 313 313 312 313 311 314 321 320 316 318 319 319 320 321 321 321 321 321 323 326 329 332 333 333 334 335 335 335 335 335 336 336 337 337 335 334 335 335 335 334 334 332 329 328 328 326 325 326 326 324 319 314 311 312 311 310 310 311 316 321
318 319 323 329 332 330 329 328 326 322 319 320 320 321 322 320 320 319 319 319 319 319 318 318 318 318 318 318 319 318 318 317 318 317 317 316 313 312 313 313 313 312 314 320 324 323 318 317 317 319 320 320 320 319 319 321 323 328 331 331 332 333 334 334 334 334 335 335 335 335 336 335 334 334 334 334 334 333 331 329 330 332 331 328 325 324 325 325 323 316 311 310 311 310 313 321 323
318 323 324 325 330 328 326 325 323 321 320 321 321 320 321 319 319 319 319 319 319 319 318 318 318 317 318 318 318 318 318 317 317 317 315 314 313 313 313 313 313 312 314 316 325 327 318 314 314 316 319 320 321 319 318 319 321 326 330 331 331 332 333 333 332 333 334 335 335 335 335 335 335 335 335 333 332 331 329 329 331 333 335 333 329 326 327 330 331 327 319 311 310 310 313 325 328
318 323 326 326 327 325 327 325 322 322 320 321 321 319 319 318 318 318 319 319 319 319 318 318 317 317 318 317 318 318 317 316 318 318 314 313 313 313 313 314 314 313 313 313 320 322 313 312 312 313 316 319 321 321 320 320 320 322 327 330 331 331 330 331 331 332 333 334 334 334 334 334 335 335 335 333 332 329 328 330 331 330 332 333 332 330 331 331 333 333 330 320 310 312 316 324 331
319 321 324 326 328 326 327 325 323 323 321 320 320 319 319 318 318 318 318 319 318 318 318 317 316 317 317 316 319 318 316 316 316 316 313 313 313 313 314 314 314 314 314 312 314 314 311 312 311 312 314 316 319 320 321 321 321 320 323 327 329 330 330 331 330 330 331 331 332 332 333 334 334 335 334 333 332 330 330 331 330 329 329 330 330 330 331 331 333 333 335 331 317 315 319 324 331
321 321 323 325 328 327 325 324 324 322 320 320 319 319 318 318 318 318 318 318 318 318 317 317 316 317 317 316 320 318 315 315 314 314 313 313 313 313 314 314 314 314 314 314 313 313 313 313 311 312 312 314 316 318 320 322 322 320 320 322 326 330 331 331 331 331 330 329 330 331 333 333 333 334 333 333 332 332 331 331 331 330 330 329 327 328 329 329 330 331 333 336 327 318 319 325 333
321 322 324 325 325 325 323 323 324 322 321 320 318 318 318 317 317 318 318 318 318 317 317 316 316 316 315 317 320 316 314 314 314 314 313 313 313 313 314 314 314 314 314 314 314 314 314 314 313 312 311 312 314 317 320 322 322 320 319 319 323 327 329 330 331 332 331 329 330 331 332 332 332 333 332 332 332 332 330 330 331 331 331 330 326 325 328 328 329 330 330 334 334 325 316 324 334
322 322 323 325 324 322 320 321 323 322 320 319 319 318 317 317 318 318 317 317 317 317 315 316 316 315 315 319 318 314 313 314 314 313 313 313 313 314 314 314 314 316 316 314 314 314 314 314 314 314 313 312 312 314 318 321 323 321 318 317 319 324 324 326 328 330 330 330 330 330 331 332 332 331 331 331 331 331 330 329 331 332 331 329 326 324 325 328 329 330 330 332 335 332 320 321 330
323 325 324 325 325 321 319 320 322 322 322 320 319 317 317 318 317 317 317 317 317 316 315 315 315 315 315 317 316 313 314 315 313 312 312 312 313 314 313 313 315 316 317 316 318 319 317 316 315 314 314 313 313 313 314 317 319 320 318 317 317 320 322 322 323 326 329 331 331 330 330 332 332 331 331 331 330 331 330 329 330 332 331 329 327 325 325 328 329 329 331 332 334 335 328 321 324
321 325 324 324 325 323 321 321 322 322 323 320 318 317 317 317 317 316 317 316 316 315 315 315 315 315 315 316 315 313 313 313 312 312 312 311 312 312 312 313 314 314 315 316 319 320 319 319 319 317 315 314 314 313 314 314 315 317 317 317 316 318 322 323 322 322 327 331 332 332 332 331 331 332 331 330 330 330 330 329 330 331 330 329 328 326 326 328 328 328 330 332 333 335 334 326 323
320 323 323 325 327 323 322 323 323 322 321 320 317 317 317 317 317 316 316 316 315 315 315 314 315 315 315 315 313 312 311 311 311 310 310 311 311 311 311 311 311 311 312 313 314 315 314 315 316 316 315 317 318 317 316 314 314 314 315 316 315 315 318 321 322 321 323 327 329 330 331 332 331 331 332 331 329 329 329 329 330 331 330 329 328 326 327 327 327 327 329 332 333 334 335 330 326
319 321 323 327 326 322 322 323 323 321 320 319 317 318 317 317 316 316 315 315 315 315 315 314 314 315 314 313 312 310 310 310 310 309 309 310 310 310 309 309 309 310 310 310 310 309 309 309 310 311 313 317 321 323 322 320 317 316 315 315 315 315 315 317 318 319 319 320 322 322 324 329 332 332 332 331 329 328 328 329 329 330 331 330 329 327 326 327 327 327 327 330 333 334 335 332 327
319 320 325 328 324 322 321 322 322 320 319 319 317 317 317 316 316 316 315 315 316 315 315 313 313 314 312 311 310 310 309 309 308 308 308 309 309 308 308 308 308 308 308 308 308 306 306 307 307 308 309 311 315 319 321 322 320 320 320 319 318 316 316 316 316 316 316 317 318 317 316 321 329 332 331 331 329 328 327 328 328 328 329 329 329 328 327 327 327 326 325 329 333 334 333 332 328
319 322 327 327 324 321 321 321 322 320 319 319 317 317 316 316 316 315 315 315 316 315 313 312 312 312 311 310 309 309 308 308 307 307 307 308 308 307 307 307 307 306 306 306 307 305 305 306 306 307 306 307 309 311 314 317 318 320 321 322 322 320 318 318 317 317 316 317 318 318 316 315 321 328 330 330 330 328 327 328 327 327 328 329 329 329 328 327 327 326 325 329 333 334 331 328 326
321 326 326 325 323 321 320 320 319 319 318 317 317 316 316 315 315 315 315 315 315 314 312 312 311 311 310 309 309 308 307 307 306 306 306 306 306 306 305 306 305 305 304 304 305 304 304 306 306 307 307 306 305 308 310 313 316 319 322 323 324 324 323 321 320 319 318 319 319 319 319 316 316 323 328 329 329 329 328 328 327 327 328 329 329 328 328 327 327 326 325 330 333 334 331 327 325
322 325 323 322 322 319 318 318 318 318 317 316 316 316 315 315 314 315 315 315 314 313 312 312 310 309 309 308 307 307 306 306 305 304 304 304 304 304 304 304 305 304 304 304 304 303 303 305 306 307 308 308 305 305 308 310 313 316 320 322 324 325 326 326 324 321 320 319 319 319 321 321 319 321 326 327 328 328 328 328 327 327 328 328 328 328 328 327 326 326 325 328 332 333 331 329 326
321 322 322 321 319 318 317 317 317 316 316 316 316 315 315 315 314 315 315 314 313 311 311 311 309 308 307 306 306 305 305 304 304 304 304 303 303 303 303 304 304 304 304 305 304 302 302 303 305 305 306 309 305 304 307 308 311 314 316 318 321 323 325 326 326 324 322 321 319 318 320 322 323 324 325 326 326 327 328 329 328 327 328 328 328 328 327 327 326 326 326 328 331 332 332 330 328
319 319 321 319 317 318 317 316 316 316 315 315 315 316 315 314 315 315 315 314 313 311 310 309 308 307 306 305 304 304 304 304 304 303 303 303 303 303 303 303 303 303 303 304 304 303 302 301 303 304 304 307 304 304 309 308 308 311 312 316 318 321 323 324 325 326 325 324 322 319 319 321 324 326 326 326 326 328 329 329 328 328 328 328 327 328 327 326 326 326 327 331 333 331 332 331 331
318 318 319 317 316 318 317 316 316 315 315 315 315 315 314 314 315 314 314 313 312 310 309 308 307 306 305 304 304 304 303 303 303 303 303 303 302 302 302 302 301 301 301 302 303 302 302 301 302 301 302 305 302 302 308 307 309 309 308 310 313 317 319 321 323 325 326 326 325 322 321 322 324 326 326 326 325 327 330 329 328 328 328 328 327 328 327 326 326 326 327 331 333 332 332 333 334
317 318 318 316 315 317 316 316 315 314 314 314 314 313 314 314 314 313 313 312 311 309 308 307 306 305 305 304 303 303 303 303 302 302 302 302 302 301 301 301 300 300 300 301 302 301 301 301 301 301 301 302 300 300 302 303 308 309 308 308 307 309 312 317 320 322 324 325 326 325 324 323 324 325 325 326 326 326 329 329 328 328 329 328 327 327 326 325 326 327 326 328 332 332 332 333 334
317 318 317 316 315 316 316 315 314 314 314 313 313 313 314 315 314 313 312 311 310 308 307 306 305 305 304 303 303 302 302 302 302 301 301 301 301 300 300 300 299 299 299 300 300 300 301 300 301 301 300 301 300 300 300 299 302 304 306 307 306 305 306 310 315 318 321 322 324 326 326 325 324 325 326 326 326 327 329 329 328 328 329 329 327 327 325 324 325 326 325 326 330 331 332 333 333
318 318 316 316 315 315 315 314 314 314 313 312 313 313 314 315 314 313 312 310 308 307 306 305 305 304 303 303 303 302 302 301 300 300 300 300 299 299 299 299 299 299 298 299 299 299 300 300 300 300 300 300 300 299 299 299 300 299 301 302 303 305 305 306 309 314 318 320 322 323 325 326 324 324 326 327 327 327 328 329 328 328 329 328 327 326 324 323 324 326 327 328 331 331 332 333 333
318 316 316 316 316 315 314 314 314 313 312 311 313 313 314 314 313 312 311 309 307 306 306 305 304 303 303 302 302 302 301 300 299 299 299 299 298 299 299 299 299 298 298 298 298 298 298 298 299 298 298 299 298 298 298 298 299 298 299 299 300 303 306 307 305 308 313 317 320 322 323 325 326 325 325 326 328 329 328 329 329 328 328 328 327 326 324 323 324 326 328 329 331 331 331 332 332
317 315 315 315 315 315 314 314 314 313 312 311 312 313 313 314 313 312 310 308 307 306 305 305 304 303 303 302 301 301 300 300 299 298 298 299 298 298 299 298 298 298 298 297 297 297 297 297 297 297 297 297 297 297 297 297 297 297 298 299 298 299 303 307 304 303 307 312 316 319 322 323 325 326 325 325 327 329 328 328 329 328 328 328 327 326 323 323 324 326 327 328 330 330 329 330 331
316 315 314 314 315 315 314 314 314 313 312 312 312 313 313 313 313 312 309 308 307 306 305 304 303 303 302 301 301 301 300 299 299 298 298 298 298 297 298 298 297 297 297 297 297 297 297 297 297 297 296 296 297 296 296 296 296 296 297 298 298 297 298 301 303 302 302 307 312 315 319 322 323 324 325 325 326 327 328 328 329 329 328 328 328 326 323 323 323 326 328 328 328 328 327 329 329
314 314 314 314 314 314 314 313 314 313 312 312 311 313 313 313 313 311 309 307 306 306 305 304 303 302 302 301 301 300 299 299 298 298 297 297 297 297 297 297 297 297 296 296 296 296 296 296 296 296 296 296 296 296 297 297 296 296 296 296 297 297 297 297 301 306 304 302 307 310 314 319 321 322 324 325 325 325 326 327 327 328 328 327 328 325 322 322 323 326 328 327 327 326 326 327 327
314 314 314 315 315 314 314 314 314 313 312 312 312 312 313 313 313 310 309 307 306 305 304 303 303 302 302 301 301 300 299 298 298 298 297 297 297 297 297 296 296 296 296 296 296 296 296 296 296 296 296 296 296 296 296 296 296 296 296 296 296 296 298 297 299 305 306 302 304 308 309 313 318 321 322 323 324 324 325 326 326 327 328 327 327 325 322 323 323 325 327 326 325 325 324 325 325
314 315 315 317 317 315 314 314 314 313 313 313 312 311 312 313 312 310 308 307 306 305 304 303 302 302 301 301 300 300 299 298 298 298 297 297 297 296 296 296 296 296 295 295 295 295 295 295 296 296 296 296 295 296 296 295 295 296 296 296 295 295 298 298 296 298 301 303 307 310 310 312 316 318 320 322 323 323 324 325 326 327 327 327 327 325 323 323 324 325 327 326 325 324 323 324 324
314 317 319 319 318 316 314 314 313 313 313 313 312 311 311 311 311 309 308 307 306 304 303 303 302 302 301 300 300 299 299 298 297 297 297 296 296 296 296 296 296 295 295 295 296 295 295 295 295 296 296 295 295 296 296 296 295 296 296 296 296 296 296 297 296 295 296 300 305 308 309 311 313 313 315 319 321 322 323 324 326 326 326 327 327 325 323 323 324 325 326 326 326 324 322 323 323
316 318 319 319 317 315 314 314 313 312 313 313 312 311 311 311 310 309 307 306 305 304 303 303 302 301 300 300 299 299 298 298 297 297 297 296 296 295 295 295 295 295 295 295 295 295 295 295 295 295 295 295 295 296 296 296 296 296 296 296 296 296 296 295 296 296 295 296 300 303 305 309 311 310 311 315 319 320 322 324 326 325 325 327 327 325 324 323 323 325 325 325 326 324 322 323 323
319 318 318 317 315 314 313 313 313 313 312 312 312 311 312 311 308 308 306 305 304 303 303 302 302 301 300 299 298 298 298 297 297 297 297 296 295 295 295 295 295 295 295 295 295 295 295 295 295 295 295 295 295 295 295 295 295 296 296 296 297 297 296 295 295 296 296 295 297 300 303 306 310 312 311 313 314 316 320 323 324 325 325 326 327 325 324 323 323 324 324 324 325 325 323 323 323
319 318 317 316 314 312 311 312 312 313 312 312 311 311 312 310 308 307 306 305 304 303 303 302 301 300 299 299 298 298 298 297 297 297 296 295 295 294 294 294 294 294 294 294 294 294 294 295 294 294 294 295 295 295 295 295 295 295 295 296 296 297 297 296 295 296 297 296 295 297 300 303 307 311 312 312 311 313 318 321 322 324 324 325 326 326 325 324 324 324 324 324 324 325 323 323 322
315 315 314 314 313 312 312 312 311 312 312 312 311 310 311 310 308 306 306 305 304 303 302 301 300 300 299 298 298 298 297 297 297 297 296 295 294 294 294 294 294 294 294 294 294 294 294 294 294 294 294 294 295 295 295 295 295 295 295 295 296 296 297 297 296 296 297 298 296 295 297 300 303 307 310 311 310 310 315 319 321 322 322 324 326 326 325 324 324 324 323 324 324 324 323 321 322
311 313 314 313 314 313 312 313 311 311 311 311 311 311 310 310 309 306 305 304 303 302 302 301 300 299 299 298 298 298 297 297 297 296 296 294 294 294 293 293 293 294 294 293 294 294 294 294 294 294 294 294 294 294 294 295 295 295 295 295 295 296 296 297 297 297 297 298 297 295 295 297 299 302 306 309 310 310 312 316 319 322 322 324 325 325 324 324 323 322 322 323 324 324 322 321 321
311 313 314 314 315 314 312 313 312 310 311 311 310 310 309 309 309 306 305 304 302 302 301 300 300 299 298 298 298 297 297 297 296 296 295 294 294 293 293 293 293 293 293 293 293 294 294 293 293 294 294 294 294 294 294 294 294 294 295 295 295 295 295 296 297 297 297 298 298 297 296 295 296 298 302 305 307 309 310 312 315 320 323 323 324 325 324 323 322 321 322 323 324 324 322 321 320
313 314 314 315 316 315 313 313 312 310 310 309 309 309 308 309 309 306 304 303 302 301 300 300 299 299 298 298 298 297 297 296 296 296 295 294 293 293 293 293 293 293 293 293 293 293 293 293 293 293 294 294 294 293 293 293 294 294 294 294 294 294 295 295 296 297 297 297 298 297 297 296 296 296 299 302 304 306 308 308 311 316 321 322 321 323 324 323 322 322 322 322 323 322 321 320 319
315 315 315 316 316 315 314 313 311 310 310 309 309 309 308 309 308 306 304 303 301 301 300 299 299 298 298 298 297 297 296 296 295 295 295 294 293 293 293 293 293 293 293 293 293 293 293 293 293 293 293 293 293 293 293 293 293 293 293 293 294 294 294 295 295 296 296 297 297 297 297 297 296 295 296 299 301 304 306 305 306 311 318 321 320 322 323 322 322 322 321 322 323 321 320 319 318
315 316 316 315 315 313 312 312 310 309 310 310 309 309 308 309 307 305 303 302 301 300 300 299 298 298 298 297 297 296 296 295 295 295 294 294 293 293 292 293 293 293 293 293 293 293 293 293 293 293 293 293 293 292 292 292 292 292 292 293 293 294 294 294 295 295 295 296 297 297 297 297 297 296 295 296 298 301 304 304 304 307 312 317 320 321 322 323 322 322 321 322 323 321 320 319 318
313 316 316 313 311 311 312 313 311 310 310 309 308 309 310 310 308 305 303 301 300 300 299 299 298 298 297 297 296 296 295 295 295 295 294 294 293 293 293 292 293 293 293 293 293 293 293 293 293 293 292 292 292 292 292 292 292 291 292 292 293 293 294 294 294 295 295 295 296 297 297 297 297 297 295 295 296 298 301 303 303 305 308 312 318 320 321 323 322 322 321 321 322 322 321 320 319
312 314 313 310 309 311 312 312 311 311 311 310 309 309 308 309 309 306 303 302 301 299 299 299 298 298 297 296 296 295 295 294 294 294 294 293 293 293 293 292 292 292 293 293 293 293 293 292 292 292 292 291 291 291 292 291 291 290 291 291 292 292 293 294 294 294 294 295 295 296 297 297 297 298 296 294 295 296 298 301 303 304 305 308 315 319 320 321 322 321 321 321 322 322 321 321 320
313 311 309 309 309 311 311 311 311 310 310 310 310 309 307 307 309 307 305 303 301 299 299 299 298 297 296 296 296 295 295 294 294 294 293 293 293 293 293 292 292 292 293 293 293 292 292 292 292 292 291 291 290 291 291 291 290 289 289 290 291 291 292 293 293 294 294 295 295 295 297 297 297 298 297 294 294 296 297 299 301 302 303 305 309 314 318 319 321 321 321 320 321 321 320 321 321
311 308 307 308 308 309 310 310 310 310 310 309 309 310 308 307 308 307 305 304 301 299 299 299 298 297 296 296 295 295 294 294 294 294 293 293 293 293 293 292 292 292 293 293 292 292 292 292 292 291 291 290 290 290 290 290 289 288 288 289 290 291 291 292 292 293 294 294 295 295 296 297 297 298 298 296 294 295 296 297 299 301 302 304 305 308 313 318 320 321 321 320 319 320 320 321 321
309 308 310 310 310 311 310 310 311 309 309 307 307 310 309 308 309 308 306 305 301 299 299 298 297 296 296 295 295 294 294 294 293 293 293 293 293 293 292 292 292 292 292 292 292 292 292 292 291 291 290 289 289 289 289 289 288 287 287 288 289 289 290 291 292 292 293 294 294 295 295 297 297 298 299 297 294 294 296 296 298 300 301 302 304 304 307 315 319 320 321 320 319 319 319 320 320
308 309 311 311 311 311 309 311 310 307 308 307 307 309 308 308 309 307 306 304 302 300 299 298 297 296 296 295 294 294 294 293 293 293 293 293 293 292 292 292 292 292 292 292 292 292 291 291 290 290 289 288 288 288 287 286 286 286 286 286 287 287 288 289 290 291 293 294 294 295 295 296 298 298 298 297 295 294 295 295 296 299 300 301 303 304 304 309 317 320 320 320 319 318 317 319 320
308 310 309 309 311 309 308 310 309 307 308 307 305 307 307 308 308 305 302 302 301 300 298 297 297 296 295 295 294 294 294 293 293 293 293 293 293 292 292 292 292 292 291 291 291 291 290 289 289 289 288 287 287 286 285 285 285 285 284 284 285 285 286 287 288 290 291 292 293 294 295 296 297 298 298 297 295 293 294 295 295 297 299 300 301 304 304 305 312 320 320 319 320 318 317 318 319
309 308 308 309 311 310 310 312 312 310 308 304 303 304 304 305 306 303 301 299 299 299 297 296 296 295 295 295 294 294 294 293 293 293 293 292 292 292 292 292 291 291 291 291 291 290 290 289 288 288 287 286 286 285 284 284 284 284 284 284 284 284 285 286 287 288 289 290 291 292 294 296 297 298 298 298 296 294 293 294 295 296 298 300 300 302 304 303 306 316 321 319 320 319 316 318 319
308 308 308 309 310 309 309 310 311 311 309 304 303 303 303 303 304 303 300 298 297 297 296 296 295 295 295 294 294 294 293 293 293 292 292 292 292 292 292 291 291 291 291 291 290 290 289 288 287 287 286 286 285 284 284 283 283 283 283 283 283 283 283 284 285 286 288 290 291 292 294 297 298 298 298 298 297 295 293 294 294 294 296 299 300 301 303 303 304 311 319 319 319 319 317 317 319
307 307 306 308 309 308 308 308 308 310 308 305 303 303 304 304 303 301 298 297 297 297 296 296 295 295 295 294 294 293 293 293 292 292 292 292 292 292 291 291 291 291 291 290 289 289 288 287 287 286 285 285 284 284 283 282 282 281 282 282 282 282 282 282 282 284 286 288 289 291 293 296 297 298 298 297 297 295 293 293 294 294 295 298 300 300 301 303 303 305 315 319 317 318 318 317 319
306 306 307 308 307 307 308 307 306 306 305 303 303 304 304 303 300 299 297 296 297 296 296 296 295 295 295 294 294 293 293 293 292 292 292 292 292 291 291 291 291 291 290 290 289 288 287 287 286 285 284 284 284 283 282 282 281 280 280 281 281 281 281 281 281 282 284 286 288 289 291 293 295 297 298 297 298 296 293 293 294 294 294 296 299 300 300 303 304 303 312 319 315 315 319 318 318
305 305 307 306 304 305 306 306 304 304 303 302 303 304 303 302 301 298 297 297 296 296 296 295 295 295 294 294 293 293 293 292 292 292 292 292 291 291 290 290 291 291 290 289 288 288 287 286 285 284 284 283 283 283 282 281 280 279 279 279 280 280 280 280 280 280 282 284 287 288 289 291 293 294 297 297 298 297 295 293 293 294 294 295 297 300 300 302 303 303 309 317 315 315 318 318 318
304 305 305 303 303 303 304 304 302 301 301 302 304 303 301 303 302 298 297 297 297 297 296 295 295 295 294 294 293 293 293 292 292 292 292 291 291 290 290 290 290 290 289 288 288 287 286 286 284 283 283 283 282 282 282 281 279 278 278 278 279 279 278 279 279 279 280 282 286 287 287 289 292 293 294 296 297 298 297 294 294 294 294 294 295 298 300 301 303 304 306 314 317 316 318 318 317
302 303 302 302 304 303 302 303 302 301 301 303 304 303 302 303 302 299 298 297 298 297 296 295 295 294 294 294 293 293 293 292 292 292 292 291 291 290 290 290 290 290 289 288 287 286 286 285 284 284 283 282 282 282 281 280 279 277 277 277 277 277 277 278 278 278 280 281 283 285 286 288 291 292 293 295 296 297 298 296 295 295 294 294 294 296 299 300 302 303 304 311 317 316 316 318 317
300 300 300 301 301 301 302 302 302 302 302 302 303 302 303 303 303 302 299 297 297 296 296 296 295 294 294 293 293 293 292 292 292 291 291 291 290 290 290 290 290 289 288 287 286 286 285 285 284 284 283 283 282 282 281 280 278 277 277 276 276 276 277 277 277 278 279 280 281 283 285 287 289 290 292 294 295 296 297 297 296 296 295 295 294 295 298 299 301 302 303 309 316 315 315 318 317
300 298 299 299 299 300 302 300 300 301 300 300 301 300 301 302 300 300 298 297 297 296 296 295 295 294 294 293 293 293 292 292 291 291 291 290 290 290 290 290 289 289 288 287 286 285 285 284 284 283 283 283 282 282 281 279 278 277 277 276 276 276 276 276 276 277 278 279 280 282 283 285 286 288 291 293 294 295 296 296 296 296 296 295 294 294 297 299 301 302 302 306 315 317 315 317 317
301 299 299 300 299 300 301 299 300 301 298 298 299 298 300 301 299 298 298 297 297 296 296 295 294 294 293 293 293 292 292 291 291 291 290 290 290 290 290 289 289 288 287 286 286 285 284 284 283 283 282 282 282 281 280 279 278 277 277 276 275 275 275 275 276 277 277 278 280 281 282 283 284 287 290 292 293 294 295 296 296 297 296 296 295 294 296 298 300 302 301 303 311 316 315 316 316
Wind_Speed
5 4 4 3 5 6 4 3 2 1 2 1 4 3 2 2 1 3 6 7 3 5 10 7 8 7 5 4 5 7 6 4 4 4 2 8 12 11 18 23 22 21 19 15 15 18 13 9 10 11 12 12 13 14 14 13 12 12 12 13 13 13 12 13 14 15 14 14 14 15 15 16 17 18 18 16 14 14 14 14 15 15 14 14 13 12 13 15 15 14 15 13 13 13 11 12 15
5 4 5 6 5 3 3 2 1 2 2 3 5 3 0 0 3 6 7 6 4 6 8 7 8 6 5 6 7 7 5 4 9 9 7 12 12 13 21 23 21 19 19 16 12 15 15 10 9 10 10 11 12 13 14 13 13 13 13 14 13 14 14 15 16 16 15 15 15 15 16 16 17 18 19 17 15 16 15 14 15 16 14 14 13 13 12 14 15 15 15 14 14 14 11 13 15
6 5 4 7 6 3 5 1 2 3 1 4 4 3 2 3 6 6 7 7 6 7 6 7 6 3 6 6 4 5 3 10 14 12 10 13 17 20 23 22 20 18 18 18 13 11 15 13 9 9 9 9 10 12 13 14 14 14 14 15 15 15 16 17 17 18 17 17 17 17 17 18 18 18 19 17 16 17 17 16 16 16 15 14 13 12 12 12 14 14 15 14 15 15 12 13 15
7 6 3 4 6 3 4 1 3 3 4 3 3 4 5 6 7 6 8 8 7 6 5 8 5 2 6 5 6 6 6 13 15 14 12 16 21 22 23 22 21 19 17 17 16 13 13 15 12 10 10 10 12 13 15 15 16 16 16 16 16 16 17 18 18 19 19 19 19 18 18 19 20 20 20 18 17 18 18 17 17 16 15 15 14 12 12 12 13 13 15 14 15 15 13 14 16
6 7 6 2 3 2 2 2 2 3 4 3 3 4 6 6 7 5 5 8 8 6 7 9 4 5 5 2 5 5 8 11 13 16 13 16 20 22 23 22 20 19 17 14 16 17 15 16 15 14 14 14 15 17 18 18 18 17 18 18 17 17 18 19 20 20 20 20 20 19 19 20 20 20 20 18 18 18 19 18 17 17 16 16 15 14 13 12 12 13 14 14 15 16 14 15 16
7 7 7 4 5 4 3 2 2 5 2 4 3 4 7 7 7 7 5 8 7 5 6 8 6 9 5 1 5 4 8 9 12 17 15 17 20 22 23 20 19 18 16 13 11 16 17 16 16 16 17 17 18 19 20 20 20 20 20 19 19 19 19 21 21 20 21 21 21 21 20 20 20 19 19 19 19 19 19 18 17 16 16 16 15 15 14 14 14 14 14 14 15 17 16 16 17
8 5 4 5 5 3 3 1 3 4 2 4 4 5 6 7 8 8 7 5 4 5 5 7 8 8 2 5 6 9 14 14 14 15 15 19 22 21 20 18 18 16 14 13 9 14 18 16 15 15 16 18 19 20 21 20 21 22 22 21 20 21 21 22 22 20 21 22 22 22 22 21 20 19 19 19 19 19 19 19 19 18 18 17 16 15 15 15 15 16 16 14 14 18 18 17 18
8 5 3 3 2 2 3 1 4 4 2 3 5 6 5 8 8 6 7 5 5 4 4 10 11 5 5 10 7 16 20 18 15 15 18 21 21 19 18 18 17 17 16 15 13 15 17 15 14 13 15 17 18 20 21 22 21 22 23 23 22 23 23 23 23 21 22 23 23 23 22 22 20 21 21 20 19 19 18 19 20 19 19 18 17 16 17 17 17 17 18 17 15 18 20 18 20
8 7 3 1 2 3 3 4 4 2 4 3 6 7 5 8 8 5 4 4 6 6 7 11 9 4 7 10 12 21 23 21 21 21 23 22 21 20 19 19 18 19 17 16 16 16 16 14 13 12 13 16 17 19 21 22 22 22 23 24 24 24 24 24 24 24 23 22 24 24 22 22 22 22 21 20 20 19 19 20 21 20 20 20 18 17 18 18 18 19 19 19 16 19 23 20 21
7 6 3 1 2 4 2 4 4 2 5 4 6 8 7 8 6 5 3 4 6 5 12 9 4 6 9 6 16 21 24 24 25 24 25 22 21 21 19 20 20 20 19 18 17 16 16 15 13 12 11 13 15 18 20 21 22 22 23 24 24 24 25 26 26 27 25 23 25 24 23 24 24 23 22 21 22 21 21 21 22 22 21 21 20 19 19 19 19 19 20 20 19 21 24 23 23
5 5 3 2 2 2 1 3 4 3 5 5 7 10 8 6 2 6 8 7 7 9 15 11 4 7 9 10 18 18 21 23 28 26 25 23 21 21 21 22 23 23 22 22 20 19 17 15 14 13 12 12 13 15 18 21 22 23 23 24 25 25 25 26 27 28 27 27 27 26 25 27 27 25 23 23 24 23 23 23 23 23 22 22 21 21 20 20 20 21 21 22 22 23 24 26 25
4 3 2 2 3 2 2 2 4 4 5 5 5 8 6 7 4 6 8 7 10 14 15 11 5 6 6 8 14 21 23 24 29 27 25 24 21 21 21 22 24 24 25 25 24 22 21 19 17 15 14 13 13 14 15 18 21 23 24 25 25 26 26 26 26 28 29 29 29 29 29 28 28 26 24 25 26 25 25 24 24 24 24 23 23 22 22 22 22 22 22 22 24 26 25 27 27
4 4 3 2 4 2 2 2 3 4 4 4 6 6 5 8 9 8 7 7 12 11 11 12 7 4 6 7 14 27 28 27 29 27 25 23 20 20 20 20 20 20 21 22 21 21 22 22 22 20 18 16 15 15 15 16 18 20 23 25 25 26 27 27 27 28 29 30 30 31 31 31 30 27 25 27 28 27 27 26 25 26 25 25 25 24 24 24 23 23 22 22 25 27 26 27 28
4 5 3 3 4 1 2 2 3 3 3 5 7 5 5 7 9 9 7 7 10 7 7 15 12 4 9 11 18 30 28 27 27 25 23 20 20 20 20 21 20 20 20 20 20 20 22 22 22 22 21 20 19 18 17 17 17 19 21 23 25 26 27 28 28 29 29 30 31 31 31 32 32 29 29 29 29 29 29 28 27 27 27 28 28 27 26 25 25 24 23 23 25 27 28 27 28
6 6 2 2 4 1 2 1 2 3 4 5 4 5 7 11 8 8 8 5 6 7 4 13 17 6 11 14 14 24 23 22 24 23 22 19 20 21 22 24 24 24 24 24 25 25 26 26 26 23 23 22 21 21 20 19 18 20 21 22 23 26 27 28 29 30 31 31 31 32 32 32 32 32 32 31 31 31 31 30 29 28 29 30 30 30 28 26 25 26 25 24 26 27 28 29 31
6 4 2 2 4 1 2 2 3 2 3 3 5 9 9 10 9 5 6 3 5 11 11 18 22 14 18 19 14 18 18 19 21 21 20 20 22 23 25 26 26 26 27 28 29 31 30 30 30 28 26 23 21 20 21 21 21 20 21 23 24 25 26 28 29 30 31 32 33 34 34 34 33 33 33 33 33 33 33 32 30 30 32 32 31 31 30 27 26 26 26 26 27 27 29 30 33
5 2 1 3 3 3 3 3 5 3 2 3 6 13 7 6 9 4 3 2 7 15 19 22 24 22 21 19 14 15 15 17 19 20 21 22 25 26 27 28 29 29 30 30 30 33 33 32 33 31 31 29 26 23 20 20 22 22 21 22 24 25 26 27 29 30 31 32 33 35 35 34 34 34 34 34 35 34 34 34 33 32 33 33 32 31 30 28 26 25 26 26 27 28 29 30 32
2 1 1 4 2 3 4 4 5 4 4 6 9 12 7 5 7 5 2 4 11 16 18 20 23 22 17 13 13 14 16 18 21 23 25 26 27 28 28 29 29 30 31 31 31 33 33 33 33 32 33 32 30 28 25 22 20 21 22 22 22 24 26 27 28 29 30 30 32 33 34 34 33 34 34 34 35 36 36 35 35 35 34 34 33 32 30 28 27 25 26 27 28 29 29 29 30
2 1 2 2 2 2 5 6 6 7 7 8 10 11 7 7 6 6 3 8 13 12 12 18 21 19 16 14 13 15 17 20 23 26 27 28 27 27 27 28 28 30 31 31 31 32 33 32 32 32 32 32 32 31 28 26 23 21 21 21 21 22 25 27 29 29 29 30 31 32 33 33 33 34 35 35 36 37 38 37 36 36 35 35 33 32 31 29 27 25 26 28 29 28 27 29 30
1 1 1 0 3 1 3 7 8 9 10 8 8 9 6 9 6 5 3 10 12 9 10 14 17 17 16 16 15 17 19 21 23 25 27 27 27 27 26 28 28 28 29 29 30 31 32 31 32 32 31 32 33 32 29 29 27 24 22 21 22 23 24 25 28 29 29 30 31 32 32 32 33 33 34 35 36 38 40 39 37 36 36 35 33 33 32 30 27 26 26 28 30 28 28 30 31
2 1 1 1 3 1 0 6 8 9 10 7 7 6 5 6 5 7 7 8 6 9 14 14 15 14 14 15 16 18 20 22 23 24 25 26 26 27 26 26 26 26 27 27 28 31 32 32 31 31 31 31 33 33 31 30 29 27 26 23 23 24 25 25 26 27 30 30 31 32 32 32 32 33 33 34 35 37 39 39 38 37 35 34 33 33 30 28 27 26 25 26 30 28 27 30 32
3 1 5 5 4 2 1 5 7 7 7 6 6 4 4 3 6 12 11 7 5 11 16 14 14 13 13 15 16 18 21 23 24 24 24 26 26 26 26 26 27 27 28 27 27 30 32 32 31 31 31 30 33 33 31 32 31 29 28 25 24 23 25 27 27 27 28 29 31 32 33 32 32 32 34 35 35 36 37 38 40 38 36 34 34 33 29 27 27 26 24 26 28 26 27 31 35
2 1 7 7 4 2 1 6 5 6 5 5 5 4 3 1 10 12 13 12 12 16 14 13 14 13 14 14 16 19 21 23 24 24 23 24 25 25 26 27 29 29 31 30 28 30 32 32 32 32 32 30 33 34 32 32 31 31 30 29 28 25 24 26 28 29 29 29 30 32 33 34 33 34 35 37 36 36 37 39 41 39 37 35 34 33 29 28 27 25 25 28 30 28 30 33 38
2 1 5 5 2 3 4 6 4 3 3 5 6 5 5 5 9 11 15 17 17 16 12 13 14 13 15 16 17 19 20 22 22 22 22 23 24 25 25 27 30 30 31 30 28 30 30 31 30 31 32 31 34 35 34 34 31 31 31 31 31 29 26 24 26 28 31 32 30 31 33 34 35 36 36 37 38 38 38 38 40 40 38 36 35 33 29 28 28 26 26 29 33 32 33 36 42
5 1 3 3 2 4 5 6 3 1 0 6 8 5 4 7 11 12 16 18 17 15 13 14 14 14 16 16 17 18 19 20 22 22 22 23 24 26 25 27 29 30 30 28 28 30 30 31 29 29 31 31 34 35 35 35 33 34 32 32 32 32 31 27 26 27 30 33 32 32 33 34 37 38 38 37 38 40 39 37 40 40 39 38 36 33 30 28 28 27 26 29 34 34 36 41 45
3 1 1 3 4 6 6 6 4 2 1 7 7 1 6 13 13 11 16 19 17 16 15 15 14 15 16 17 16 17 18 19 22 23 22 23 26 28 26 27 29 29 31 31 32 34 34 35 34 34 35 33 36 37 36 35 35 36 35 34 33 32 33 32 30 29 29 32 34 34 34 36 37 38 39 39 38 39 40 39 40 39 38 38 37 34 30 28 28 27 27 29 33 37 41 45 46
2 2 3 6 7 8 8 8 7 5 2 7 6 2 8 18 9 6 17 20 17 17 16 14 15 16 15 16 16 16 17 18 20 24 25 25 27 29 27 28 31 31 33 35 36 36 37 38 39 40 41 39 41 41 40 38 38 38 37 36 35 32 32 33 34 32 31 31 33 35 36 38 38 39 40 42 42 41 42 42 40 38 38 37 36 34 31 29 28 28 31 31 31 36 42 43 42
3 4 5 8 10 8 10 10 8 7 3 7 6 5 6 14 6 8 21 19 17 18 16 15 15 16 15 15 15 15 16 17 20 24 27 25 25 29 27 28 31 32 35 36 36 37 38 39 40 41 42 42 43 43 42 42 42 41 39 38 37 34 31 32 34 34 32 32 33 35 37 38 39 40 40 42 45 44 43 42 41 40 40 39 37 35 33 31 28 28 31 31 30 32 33 35 36
5 5 3 5 7 7 10 11 9 8 2 5 7 5 4 8 6 17 25 20 19 19 16 16 15 16 14 13 13 14 16 18 19 21 25 23 24 29 27 29 32 33 35 36 37 37 37 38 39 39 40 40 40 41 41 40 41 41 41 40 39 38 34 30 31 33 33 34 35 36 36 38 39 41 41 43 46 46 45 43 41 43 44 41 38 36 34 32 29 30 31 31 32 32 30 32 33
5 4 2 4 4 5 10 11 10 9 3 3 5 3 4 7 12 23 25 21 20 18 16 16 15 15 13 12 12 12 14 18 18 18 25 24 23 28 29 30 32 33 35 38 39 38 38 38 37 37 38 38 39 40 39 40 40 40 39 38 39 40 37 31 29 32 33 34 36 38 37 37 38 40 43 45 46 47 48 46 43 45 46 43 41 39 36 34 32 32 34 33 33 34 32 34 36
3 1 2 4 3 3 9 10 9 7 3 1 1 2 4 2 15 24 23 19 17 17 16 15 14 13 11 11 11 11 12 16 19 18 23 24 23 28 29 29 32 34 37 39 38 36 37 37 35 36 37 38 39 38 38 41 42 41 39 37 38 38 36 34 32 32 35 34 35 38 38 36 37 38 41 45 47 46 48 50 47 47 45 42 43 42 38 36 34 34 36 36 35 35 35 37 40
2 0 3 3 1 2 7 7 7 5 2 5 3 3 3 3 13 21 20 17 17 18 16 14 13 12 11 10 10 11 11 14 20 18 21 24 25 29 29 30 33 34 36 35 32 32 35 34 32 34 35 37 37 34 36 38 40 42 41 39 38 35 34 37 36 34 35 36 35 37 38 36 36 38 39 41 45 46 47 51 51 48 43 39 41 42 40 38 36 36 37 37 36 36 39 41 44
2 2 3 2 2 0 3 3 6 3 1 4 3 2 3 2 12 18 18 17 19 19 16 15 13 12 10 9 9 11 11 15 19 18 20 24 25 29 29 28 30 29 31 31 30 32 34 32 31 33 35 37 35 34 35 35 37 40 41 41 39 36 36 37 37 35 35 37 39 39 39 38 37 38 37 35 39 43 46 51 52 51 47 41 42 43 42 41 39 39 39 37 36 37 41 45 46
1 0 3 3 3 3 1 2 5 6 2 3 2 3 5 3 12 16 17 18 19 19 16 15 13 11 10 9 10 11 12 13 16 15 17 21 23 27 26 26 27 28 29 29 30 33 33 32 33 34 35 35 35 37 38 37 37 39 40 41 39 38 38 38 38 38 37 36 38 40 39 37 36 37 36 34 35 37 42 50 53 52 49 42 42 46 45 44 42 40 40 39 38 40 45 49 50
3 3 3 4 4 4 5 2 4 6 4 3 3 5 6 5 11 14 17 17 17 18 16 15 13 11 9 8 9 10 9 9 13 12 14 19 24 26 26 27 28 28 29 29 31 32 32 33 34 35 35 35 36 38 38 39 40 40 41 41 40 40 40 40 40 40 39 36 36 38 39 37 37 37 35 35 35 33 37 46 52 52 47 41 41 46 46 44 44 42 40 40 39 41 47 52 53
4 5 4 5 5 5 8 4 3 3 3 4 5 5 6 4 8 11 15 17 17 17 16 15 13 10 8 8 8 6 5 7 11 10 13 21 25 27 29 30 30 29 29 31 32 31 31 34 35 36 35 36 38 38 39 40 41 41 41 41 42 42 41 42 42 40 38 37 36 38 39 37 37 38 36 34 34 32 33 39 48 50 47 44 44 47 46 46 46 44 41 40 41 43 49 53 53
4 4 4 5 6 6 8 4 3 3 1 4 5 6 9 7 6 11 15 16 16 15 15 14 12 10 8 7 5 3 4 7 10 8 13 22 24 26 29 30 31 31 30 31 33 31 31 34 35 36 37 38 38 39 41 43 43 43 43 42 43 44 44 44 44 41 39 38 39 39 39 38 37 38 36 33 32 31 30 33 42 47 48 47 48 50 49 48 47 45 43 42 43 46 52 55 52
4 5 5 6 6 6 6 3 4 4 1 3 6 8 11 9 5 12 15 13 12 14 14 13 13 11 8 6 5 4 5 7 9 8 14 23 26 28 30 31 32 32 32 32 32 31 32 33 35 37 39 39 39 40 43 44 45 45 45 46 46 47 47 45 44 43 41 40 40 40 40 38 37 37 35 34 33 32 30 30 34 39 45 45 46 50 48 49 49 47 47 46 46 49 54 57 54
5 5 5 5 4 3 5 2 3 2 1 3 7 8 10 8 5 11 13 10 11 15 15 13 12 10 7 6 5 5 6 8 11 11 16 25 29 30 31 32 32 32 33 33 33 34 35 35 37 40 41 40 41 43 45 45 46 47 48 49 48 49 48 46 44 43 43 42 40 40 42 41 38 36 34 33 34 34 35 35 34 32 39 44 43 46 47 48 51 50 49 49 49 51 54 56 56
5 5 5 6 2 1 3 1 2 4 5 6 9 8 7 4 5 9 9 12 13 14 14 12 11 9 7 6 4 5 7 10 13 13 18 25 28 29 31 32 32 32 34 35 35 36 36 38 40 41 41 43 45 46 45 46 47 49 50 50 48 48 47 44 43 42 42 42 41 42 44 44 41 38 34 32 33 35 38 41 39 34 34 42 43 47 51 50 51 52 51 50 52 52 51 54 56
4 4 4 4 2 2 3 4 5 8 7 6 6 7 6 5 9 7 8 12 12 13 14 12 10 9 7 5 4 6 8 11 13 13 18 25 27 29 32 33 33 33 34 35 35 36 38 40 41 41 43 47 48 48 47 47 48 50 51 50 47 45 43 43 42 42 42 42 43 43 44 45 44 41 37 34 33 34 37 40 44 38 35 39 45 48 51 51 50 51 53 53 54 54 52 54 56
4 1 1 1 2 3 4 6 6 6 5 2 2 4 5 6 10 7 7 8 9 12 14 12 11 9 6 5 5 7 8 11 13 14 19 25 27 31 34 34 34 34 34 35 36 36 37 40 40 41 46 50 51 51 49 47 49 51 51 49 49 47 46 46 43 41 42 43 43 44 44 45 46 44 40 37 34 34 36 36 41 44 39 38 42 48 48 50 50 50 53 54 55 56 55 54 56
3 2 2 3 2 4 5 5 4 2 5 3 1 2 5 2 7 8 9 8 9 11 10 11 12 9 6 5 6 7 9 12 13 16 20 25 29 33 35 36 36 36 36 35 34 35 40 43 42 42 47 52 54 52 50 48 48 50 49 49 49 48 48 48 45 42 43 44 43 44 45 45 45 43 40 39 37 35 36 36 38 45 46 40 37 45 50 49 50 52 52 54 54 55 57 58 59
2 3 1 1 3 5 5 5 4 4 6 7 4 5 6 6 6 10 13 10 8 9 7 9 12 9 7 6 5 7 10 12 14 18 23 27 30 32 34 35 36 37 38 35 36 42 47 46 43 45 51 56 56 53 51 47 47 51 53 51 50 48 47 47 47 45 44 44 44 44 44 44 44 42 38 37 38 37 35 36 38 43 49 46 38 36 46 50 50 53 55 56 57 55 56 60 62
2 1 1 2 5 7 7 6 5 5 6 6 6 5 5 7 3 7 12 11 9 10 8 8 10 9 6 4 4 8 10 12 17 22 26 29 30 32 35 36 36 36 36 36 40 46 47 45 45 50 56 58 57 53 49 49 54 58 53 47 47 47 46 47 47 46 44 43 44 44 43 44 44 41 38 37 38 37 35 33 36 40 46 51 44 35 37 50 51 51 57 59 60 59 58 60 63
1 3 4 5 6 7 6 6 5 5 6 8 7 6 5 6 2 7 8 8 9 9 7 8 10 9 6 4 5 9 12 16 21 25 28 29 29 32 35 35 36 36 35 37 41 43 44 46 50 54 58 58 55 52 51 56 59 55 46 43 46 46 46 46 45 45 45 43 43 44 43 44 44 40 39 39 37 36 35 32 33 38 42 48 49 37 33 42 53 52 57 62 61 60 59 60 63
4 4 5 5 6 6 5 6 4 3 5 7 6 7 8 5 2 8 6 5 9 9 7 8 10 9 5 4 7 11 15 21 24 26 28 29 29 32 34 35 36 36 36 39 42 42 44 49 52 55 57 56 55 55 58 59 55 49 48 51 51 50 47 46 44 42 41 41 41 43 43 42 42 41 40 38 35 35 36 33 32 36 40 43 46 42 34 34 49 57 59 61 62 61 62 62 62
2 2 4 5 4 4 3 2 2 3 5 2 4 1 4 6 3 5 3 3 8 9 7 7 7 7 5 4 9 13 18 22 24 27 29 29 31 32 34 36 36 36 39 42 41 42 48 53 52 53 56 56 57 58 59 56 51 50 52 53 50 47 46 46 47 46 42 40 38 39 42 42 41 41 40 36 34 35 36 35 33 33 38 40 42 47 40 34 38 57 63 63 66 63 63 64 62
2 2 2 3 4 3 2 1 1 4 5 2 6 7 2 7 5 3 6 5 7 8 9 9 8 6 5 7 10 13 18 21 24 26 27 29 31 32 35 37 38 39 41 41 41 45 52 54 52 53 57 58 58 59 58 55 52 50 49 49 47 43 42 44 46 46 45 43 39 38 40 42 41 39 39 37 35 35 35 35 36 34 34 37 40 46 46 36 35 47 61 63 68 68 63 65 65
4 2 2 2 1 3 4 2 2 4 4 4 4 5 3 5 5 4 8 8 10 14 14 11 8 6 6 6 8 12 17 20 23 24 26 30 31 32 35 38 39 40 39 40 44 50 54 53 53 55 57 58 59 60 59 55 52 49 47 47 46 44 45 46 45 44 43 42 40 39 39 39 41 39 39 39 37 36 33 34 36 36 33 32 36 44 47 40 36 38 53 58 61 67 66 66 68
4 2 2 3 2 3 5 1 2 4 5 5 0 3 3 3 2 3 10 12 15 17 14 10 8 6 4 5 7 12 16 19 22 24 27 30 30 32 36 39 39 38 38 42 48 52 52 51 54 56 57 58 59 61 59 56 53 51 47 45 45 45 46 46 46 44 40 38 38 39 38 37 37 40 41 41 38 36 34 33 35 36 33 31 33 39 45 43 37 38 49 59 52 58 66 67 69
2 2 3 1 2 3 4 1 2 1 6 6 2 2 4 3 1 5 11 11 13 15 13 9 6 4 5 6 9 13 16 18 22 26 28 29 30 34 37 38 37 36 39 46 50 51 49 51 54 56 57 58 58 59 58 56 54 52 46 43 43 44 45 45 46 44 40 37 37 40 40 36 35 36 39 39 36 35 35 33 34 35 33 32 31 34 41 44 41 42 46 64 55 54 66 67 67
0 2 1 3 1 2 1 3 1 2 5 6 2 3 4 2 2 4 8 7 8 10 10 8 5 4 5 6 9 12 15 20 24 27 27 28 32 36 37 37 35 35 41 48 51 50 49 51 54 54 54 56 58 58 57 55 53 51 47 42 42 43 43 45 45 44 41 38 39 41 42 40 35 32 34 37 35 35 36 34 33 35 34 33 32 31 37 44 45 44 41 58 58 54 65 67 65
2 2 3 1 1 2 2 2 2 1 6 6 3 6 6 2 2 3 7 7 7 7 6 6 4 4 5 6 9 13 17 22 25 26 27 30 35 38 38 37 35 36 43 48 48 49 49 51 52 52 52 54 57 58 57 55 52 50 47 43 43 43 43 43 42 42 41 37 38 39 39 41 38 32 32 34 35 36 37 37 35 35 34 33 33 31 35 40 42 42 38 45 59 58 63 67 65
3 1 1 2 0 1 2 1 1 2 7 6 4 7 6 5 4 5 8 8 6 5 5 3 2 4 6 8 11 14 19 23 25 26 28 32 36 38 37 36 36 38 44 46 46 47 48 51 53 53 53 54 55 56 57 56 52 49 47 43 44 45 43 42 41 41 41 36 34 36 36 39 40 35 32 31 33 36 36 37 37 35 34 33 33 32 33 37 38 40 40 40 55 55 56 64 64
3 2 2 1 2 3 2 2 2 3 6 7 8 9 3 4 5 7 8 6 6 4 3 2 2 4 6 8 11 15 19 23 26 27 31 34 36 37 36 35 37 41 45 45 45 46 49 52 54 54 55 57 58 57 56 55 52 50 49 46 44 44 43 42 41 40 40 36 35 35 35 37 40 39 33 28 30 33 35 35 36 34 34 33 33 33 32 34 36 38 41 39 52 55 55 63 65
3 2 3 3 2 1 1 1 2 3 5 5 8 10 4 1 0 5 7 5 6 5 3 2 0 3 5 8 11 15 19 23 26 28 32 36 37 37 36 36 40 44 46 46 45 49 50 50 52 54 56 58 58 58 57 55 51 50 50 48 45 44 44 43 41 40 40 38 35 35 35 36 39 40 36 28 26 29 33 36 36 33 32 32 32 32 30 31 33 37 40 38 47 58 57 60 63
5 5 6 6 5 3 2 5 2 2 5 4 6 12 7 2 1 4 6 4 6 5 3 3 1 3 5 8 11 15 20 24 27 30 34 37 37 36 36 39 44 47 48 48 49 51 50 49 53 55 54 54 55 58 58 56 52 49 49 48 46 45 45 43 41 40 41 39 35 33 34 35 38 40 39 32 26 25 29 33 35 33 30 31 33 33 30 29 31 34 37 38 39 53 54 56 60
Wind_Direction
351 21 42 59 64 25 347 282 295 210 230 57 66 81 61 72 87 0 33 29 65 51 18 358 342 347 334 311 304 312 299 305 10 12 29 13 9 8 351 339 332 331 330 339 342 336 343 336 322 317 305 296 290 286 282 279 272 264 261 258 258 256 252 252 256 260 264 271 275 275 272 273 278 284 286 287 289 287 286 285 284 280 278 279 275 264 256 260 262 259 258 251 246 250 244 230 229
353 19 40 29 37 0 303 211 273 269 201 92 51 59 346 242 68 31 38 32 36 27 3 344 329 337 335 281 275 298 296 2 24 17 19 358 348 344 341 337 333 334 334 340 348 332 329 333 326 315 307 300 295 291 287 284 277 270 268 264 263 260 258 256 257 260 260 265 268 270 270 271 274 278 280 283 289 288 286 282 282 282 280 275 274 269 256 253 258 260 257 251 249 249 244 233 229
2 359 27 6 356 288 289 258 234 283 100 84 58 59 33 27 45 35 43 49 44 19 347 334 318 334 338 306 316 325 354 30 28 17 11 351 347 347 342 344 343 342 343 341 346 337 320 321 322 312 307 303 302 299 293 290 283 274 271 268 266 264 263 261 259 262 261 262 265 266 266 270 273 273 274 280 286 287 288 284 279 278 274 269 265 267 262 252 253 259 258 251 250 251 244 234 229
12 0 19 341 328 267 265 231 243 320 26 60 79 54 49 44 42 33 39 61 60 27 358 347 335 25 353 349 2 339 358 17 28 27 13 1 356 349 343 348 349 351 355 342 336 338 325 315 312 306 302 304 303 301 297 291 286 278 273 269 267 267 264 260 261 264 264 264 265 266 267 270 273 273 275 279 282 283 284 281 279 277 271 265 261 261 260 253 249 253 258 253 249 250 243 233 228
22 18 20 344 301 291 294 267 293 41 38 8 70 61 53 43 40 18 26 82 69 46 25 359 354 360 347 28 4 356 15 7 21 19 7 2 352 343 343 347 353 360 2 352 332 326 324 318 313 308 298 298 299 299 299 292 286 278 274 272 268 266 265 262 262 263 264 265 266 269 269 269 270 271 274 277 278 280 279 278 277 277 275 269 266 263 258 257 253 248 250 251 251 248 237 231 229
14 8 350 299 272 299 308 262 5 78 59 353 53 57 50 40 34 353 2 86 87 80 46 19 11 335 310 7 1 32 32 23 28 17 8 356 343 340 343 347 359 6 1 2 339 317 324 324 316 309 300 295 294 297 298 294 289 281 275 273 270 267 266 266 266 266 265 266 268 271 271 269 268 267 269 273 276 276 276 275 269 267 269 269 269 267 264 264 263 258 250 243 246 246 234 228 231
16 354 308 290 280 261 273 276 45 68 29 359 54 46 43 40 23 348 1 61 106 108 87 54 11 328 322 359 13 68 51 46 45 20 2 346 340 344 348 356 7 11 4 4 351 323 333 335 319 303 297 293 290 292 294 294 291 287 280 274 270 269 268 268 269 270 269 270 270 271 271 269 268 266 267 270 272 274 273 269 264 260 260 263 265 265 264 262 261 262 259 248 237 238 234 227 232
22 350 304 300 299 202 252 83 55 51 63 29 72 58 40 35 14 1 1 7 60 43 86 69 7 339 27 0 48 69 49 43 35 5 352 348 350 357 1 6 12 15 9 4 357 341 340 341 331 309 295 290 286 285 287 289 287 286 284 278 272 269 268 268 271 271 270 271 271 271 270 267 266 266 267 267 268 270 268 265 263 262 261 262 261 260 261 259 256 255 257 255 238 231 233 228 231
353 325 315 290 292 255 250 121 84 67 106 91 97 85 48 32 10 8 340 341 40 5 47 55 360 10 349 349 65 54 35 21 11 3 2 3 0 3 4 6 11 11 9 4 357 348 343 338 336 323 303 293 287 282 281 282 282 281 281 280 276 271 268 269 271 270 267 269 271 268 265 264 263 261 262 264 265 264 263 264 264 263 264 264 262 260 260 257 256 253 251 253 244 232 232 228 229
310 281 275 318 287 264 262 104 96 117 99 85 90 80 47 35 10 352 347 353 17 26 43 30 7 34 333 15 71 41 25 11 5 6 7 9 2 0 358 1 5 3 3 2 357 351 345 338 332 327 316 300 289 285 281 279 279 278 277 278 277 273 271 271 271 270 269 271 271 266 264 265 261 258 259 262 262 262 261 262 263 262 261 263 264 262 261 259 257 255 250 248 245 236 232 230 230
301 245 251 311 277 275 9 79 99 111 93 106 93 72 44 25 355 359 14 3 11 56 41 15 31 5 331 77 79 31 10 1 4 3 1 4 1 357 356 2 5 3 0 359 0 356 350 344 333 322 317 307 295 288 283 281 280 279 276 275 274 273 272 273 273 272 272 272 273 272 271 269 264 260 258 260 261 262 262 259 260 260 258 260 263 263 261 261 259 257 251 246 243 237 232 230 232
320 276 293 295 281 329 28 39 95 105 105 125 94 72 41 16 37 20 7 5 30 54 38 12 15 337 323 84 67 23 4 358 1 358 358 3 6 5 4 10 10 7 4 4 7 3 359 353 345 333 321 311 304 295 286 283 281 281 280 278 275 273 270 270 272 272 272 270 271 272 274 271 264 259 258 260 261 262 262 259 258 258 258 258 260 261 260 259 259 258 255 250 244 238 233 232 234
326 327 350 287 286 7 15 330 80 100 120 101 80 68 28 36 50 28 351 22 47 50 39 21 358 340 4 19 24 18 11 4 357 354 1 7 15 13 13 20 17 13 11 11 10 2 360 355 350 345 335 323 314 304 294 288 284 283 283 283 280 276 271 267 268 271 272 271 270 272 274 273 267 263 261 261 261 261 261 260 259 259 259 257 258 259 259 259 259 259 258 254 247 240 235 232 233
333 337 347 269 287 34 14 336 35 42 97 72 72 40 20 72 59 39 15 33 58 53 57 33 12 355 20 18 17 15 11 2 352 357 9 16 21 17 19 24 22 22 22 21 17 8 5 2 356 349 346 339 330 321 309 298 291 288 287 286 283 281 277 271 269 269 271 271 272 273 273 273 270 269 265 261 260 260 260 260 259 259 259 257 258 259 259 261 260 260 258 255 249 241 235 231 230
340 336 302 263 293 59 32 342 26 33 81 81 95 33 51 89 65 53 38 33 69 58 89 38 29 42 42 43 28 19 13 360 357 4 13 22 24 22 23 24 24 25 25 24 22 19 17 14 11 5 359 349 338 329 320 311 301 296 293 290 286 284 281 277 274 271 271 271 271 273 273 271 269 267 264 262 260 259 259 259 259 259 259 259 259 261 262 262 261 260 258 254 249 243 237 234 231
337 339 298 273 292 56 12 355 50 23 64 112 119 52 63 88 67 69 34 30 103 71 68 48 52 72 62 55 40 25 17 6 8 8 13 25 27 26 25 24 24 25 24 24 20 17 18 17 16 15 11 4 352 337 325 317 309 303 298 295 293 289 285 282 279 276 274 273 271 271 272 271 268 266 263 262 261 260 260 258 258 259 259 259 260 261 263 264 264 261 259 255 248 243 239 237 233
348 352 285 269 271 81 357 350 42 356 13 51 64 50 54 67 55 61 7 59 103 72 57 56 68 73 66 59 44 31 21 17 19 18 24 33 33 29 26 23 22 23 22 22 19 12 14 16 13 13 11 10 5 357 345 329 317 311 304 300 298 295 291 285 282 280 277 276 274 273 271 270 267 266 264 261 261 260 259 258 257 257 258 259 260 261 263 264 264 261 257 255 248 243 239 238 236
356 305 287 294 322 69 327 344 20 357 21 5 20 36 37 43 35 5 337 100 84 66 53 60 70 65 61 52 39 36 29 30 29 30 35 37 36 30 26 24 20 21 19 19 18 11 13 14 10 10 7 6 7 5 0 351 335 320 310 305 302 300 298 293 287 282 279 278 278 277 274 270 266 264 264 262 261 261 259 258 256 256 257 258 259 260 262 262 262 259 254 253 248 243 239 238 237
313 322 310 314 22 26 330 359 359 358 13 359 10 12 17 53 29 353 40 83 69 59 48 61 66 57 53 44 40 41 36 38 36 36 38 37 35 30 25 22 19 17 15 16 16 11 13 13 10 10 5 2 5 6 5 1 353 337 319 306 300 297 297 297 293 287 282 279 280 281 278 273 267 262 263 262 262 262 260 258 257 257 257 257 259 259 259 259 259 256 252 252 247 241 237 235 234
17 26 297 330 24 6 349 356 342 360 12 4 358 340 8 61 34 341 72 87 66 57 55 62 64 57 53 48 48 47 43 43 40 38 37 35 33 31 25 21 17 13 11 11 10 9 11 13 10 7 5 2 1 4 7 5 360 351 339 322 307 297 292 292 292 291 286 281 279 280 280 277 271 264 262 262 262 261 259 257 256 255 256 256 257 257 256 256 255 253 253 250 243 238 234 234 233
349 296 164 120 334 294 338 334 331 4 16 354 323 324 11 41 48 25 58 96 68 66 76 75 73 65 57 51 47 47 45 43 41 38 35 33 29 28 24 20 18 13 12 11 6 4 6 9 9 5 4 2 358 2 4 1 360 356 350 340 323 308 297 290 287 286 286 284 281 281 280 278 274 269 264 261 261 260 256 255 256 254 254 255 255 254 252 253 251 249 251 245 238 236 233 233 231
312 242 94 77 339 307 219 306 329 12 15 332 323 9 1 340 84 63 62 91 85 90 92 86 83 77 69 58 48 45 44 40 38 35 32 30 27 24 20 16 15 11 11 13 6 2 2 2 3 2 2 360 356 0 360 355 355 355 353 348 338 325 310 298 289 283 281 281 281 281 279 276 273 269 265 261 260 259 256 254 255 256 255 253 251 251 250 251 248 246 246 240 237 236 232 231 226
286 167 97 73 355 313 258 296 336 21 359 326 346 9 323 111 98 83 82 93 100 104 100 90 91 86 76 64 54 48 45 42 37 34 30 27 24 21 17 11 11 9 7 9 4 0 360 358 357 355 356 355 351 354 354 352 352 350 348 348 345 339 327 310 296 286 280 278 276 276 275 274 271 268 265 261 257 256 257 255 253 255 255 249 247 249 248 247 246 244 244 239 238 235 230 228 220
208 191 118 96 333 283 271 285 325 13 336 328 323 301 260 168 115 102 100 103 110 108 100 98 98 91 80 66 58 52 47 44 39 36 31 27 24 19 15 8 7 7 4 5 360 356 357 358 355 350 350 348 345 346 346 347 347 344 343 342 340 340 336 324 308 292 283 279 274 273 273 271 269 268 265 260 257 254 254 253 251 252 251 246 246 247 243 243 242 240 244 240 234 232 229 224 215
202 149 130 138 218 237 266 265 279 299 353 345 317 266 212 157 126 115 113 115 118 111 104 105 102 93 82 71 62 55 48 43 37 35 30 26 22 18 15 7 4 5 5 4 359 355 353 355 354 349 350 345 341 343 341 341 339 338 339 337 336 335 335 332 323 306 290 281 275 273 272 270 267 264 264 260 256 254 252 251 249 247 245 245 245 243 239 238 237 235 237 233 229 228 225 215 208
201 66 148 219 211 201 241 246 216 200 55 1 341 225 141 138 125 116 127 126 122 116 110 109 104 93 82 74 66 55 48 39 32 30 26 22 17 16 14 7 4 2 1 0 357 355 351 350 349 346 348 344 341 342 341 339 335 334 333 333 334 332 330 328 326 319 303 289 278 274 271 272 269 262 262 260 255 253 253 248 244 241 240 242 242 239 236 233 231 229 224 223 224 221 215 207 202
211 305 284 259 240 202 212 226 202 190 309 351 351 331 157 156 152 122 134 134 129 120 115 113 103 92 84 76 68 56 47 34 26 25 22 18 14 12 9 4 1 358 357 356 354 353 349 347 345 343 343 341 338 337 337 336 333 334 332 329 329 329 327 322 321 321 314 302 289 280 273 272 272 265 260 258 256 252 251 247 243 238 236 239 238 235 233 229 226 224 222 223 223 214 208 208 207
251 290 293 246 227 200 204 216 202 196 272 342 335 315 175 171 191 140 140 141 134 125 119 116 103 94 86 77 69 56 43 31 23 21 21 18 11 10 7 1 358 355 354 352 349 348 347 345 343 340 339 338 336 334 333 331 330 330 329 327 325 325 324 318 316 316 315 310 301 292 282 274 273 270 263 257 256 253 250 246 241 235 234 235 234 231 229 226 222 219 221 223 220 210 205 208 211
280 291 288 205 190 186 202 205 198 198 220 347 331 316 193 189 166 138 144 145 134 128 122 116 103 95 88 77 68 51 37 30 25 18 18 18 9 8 5 358 355 351 350 349 346 345 345 344 340 338 337 336 335 334 332 330 329 328 326 325 323 322 323 318 313 311 311 308 304 301 293 283 276 274 269 261 258 255 251 246 239 234 233 231 229 228 226 225 218 212 214 213 210 206 203 204 203
276 256 222 160 166 196 201 201 197 199 212 348 345 341 230 204 146 137 146 146 135 126 119 112 99 93 87 76 65 49 35 26 24 15 14 15 6 4 2 354 352 349 348 347 345 343 341 341 337 334 335 335 334 333 331 329 328 327 326 324 322 322 322 318 311 307 305 304 302 301 299 292 283 278 274 267 261 256 252 248 241 236 232 225 225 226 223 222 215 209 208 205 205 206 204 199 194
260 203 225 195 200 192 184 191 187 188 205 206 321 283 257 179 133 139 148 149 138 123 114 111 102 98 91 78 65 49 38 20 19 17 12 12 4 360 357 350 350 348 346 344 343 340 338 337 334 332 333 331 332 332 329 327 326 325 325 322 323 323 319 316 313 307 302 299 300 298 298 296 289 283 280 274 266 258 252 248 242 237 232 220 218 223 220 219 214 208 207 205 206 209 206 199 195
238 186 271 227 229 148 171 188 184 182 205 181 194 267 285 69 130 143 147 148 138 126 119 117 111 107 96 80 65 47 37 16 17 18 11 11 4 358 354 348 347 346 343 342 339 337 336 336 333 331 330 328 329 328 325 325 323 323 322 320 321 321 316 314 315 311 302 297 294 292 292 293 292 290 287 283 275 265 254 247 242 238 233 216 213 220 219 217 215 208 208 210 210 208 204 201 199
221 210 277 298 354 290 174 195 192 179 267 194 173 237 281 98 140 144 145 147 135 127 125 123 117 111 100 80 65 45 32 15 14 17 11 9 2 355 353 348 345 342 341 340 336 334 335 334 331 329 327 327 327 324 322 321 319 319 318 318 318 317 314 314 314 312 305 297 292 290 291 294 294 292 291 290 286 277 263 251 243 239 234 220 214 220 221 219 218 212 210 212 212 208 204 200 198
251 346 321 309 309 301 258 234 198 173 169 227 219 238 255 164 147 148 150 148 134 131 131 129 124 115 105 81 63 43 30 13 9 16 9 5 357 351 351 348 345 342 341 339 335 333 333 331 329 327 326 326 326 323 322 318 316 316 315 315 314 313 313 313 313 310 308 302 296 295 296 297 296 292 291 290 287 286 277 259 245 239 235 223 213 217 221 221 219 215 212 211 210 209 205 199 196
313 322 334 304 302 306 286 263 188 187 188 235 273 260 249 174 150 154 155 150 136 135 134 132 127 116 102 75 62 43 26 6 9 17 3 355 351 349 350 348 345 343 340 337 334 334 333 331 328 327 326 326 324 323 322 319 317 315 314 314 312 310 310 311 312 309 307 305 301 301 300 299 298 294 293 292 285 285 286 269 250 239 233 221 211 214 218 217 217 214 213 211 208 210 209 200 195
312 307 314 297 295 284 276 270 171 211 264 253 259 262 255 204 158 158 157 150 139 136 137 135 127 118 106 81 71 46 22 3 8 11 357 352 349 348 351 349 345 341 338 336 335 334 332 331 330 328 327 326 324 323 322 320 318 316 313 313 311 309 307 308 310 308 305 304 302 304 304 301 300 298 296 296 290 286 290 280 259 245 238 229 218 216 218 215 213 212 212 212 208 207 206 200 195
296 288 272 262 265 263 268 273 145 134 321 268 275 280 271 258 186 163 158 148 140 142 142 139 132 124 116 99 92 64 33 7 4 357 350 352 349 349 351 348 344 340 337 335 335 334 331 332 331 329 327 326 325 323 321 319 317 315 313 311 309 308 306 304 305 305 303 300 300 303 304 304 302 301 298 295 294 291 293 289 271 252 240 235 225 218 219 217 214 213 213 211 209 204 200 198 195
265 259 259 256 254 259 273 279 135 122 101 261 278 271 265 264 197 158 156 151 151 154 146 140 136 129 120 112 109 68 31 7 359 341 339 348 350 351 350 349 345 337 334 334 333 331 328 329 330 329 327 326 325 324 322 319 316 313 310 307 305 304 303 301 300 301 300 298 300 302 302 304 304 302 300 294 290 291 292 294 288 263 240 233 226 216 214 216 216 215 212 208 207 205 201 198 196
257 248 253 254 251 283 296 296 125 103 7 259 271 262 263 269 181 156 162 156 149 149 142 137 133 128 128 121 104 54 20 359 350 333 333 344 349 351 350 349 344 336 331 331 331 329 326 326 326 327 327 325 323 323 321 319 316 313 309 304 301 298 298 297 295 295 297 296 298 300 298 301 305 303 301 298 290 285 285 287 296 286 252 236 228 217 213 215 216 213 212 209 204 202 199 197 198
240 237 252 255 268 7 278 289 33 329 303 268 276 268 266 270 152 150 154 139 131 135 134 131 131 133 134 123 97 48 16 354 342 327 329 341 346 349 351 347 341 334 330 330 329 329 327 325 326 325 324 321 320 320 318 316 315 314 311 306 301 295 293 294 292 291 293 293 293 296 296 297 303 305 302 302 297 288 284 279 284 295 272 247 234 223 215 213 214 213 212 210 202 196 192 194 199
256 256 270 263 310 346 271 308 327 312 289 264 289 286 257 188 160 161 136 130 133 141 142 139 142 141 131 119 87 41 14 350 336 324 329 339 343 347 350 347 339 332 329 328 327 327 326 325 325 324 322 320 319 318 317 316 316 314 312 309 304 298 294 293 291 289 290 291 291 294 295 295 299 305 305 303 302 296 290 279 273 281 285 264 241 224 215 212 213 214 211 206 201 196 191 191 195
278 284 25 19 352 327 301 311 318 312 279 222 51 315 272 162 163 172 138 146 158 159 161 153 148 146 136 116 67 30 358 341 332 327 332 338 342 345 346 343 337 331 326 324 324 326 327 326 324 322 322 322 320 318 316 315 316 315 311 308 304 299 296 294 291 289 289 290 291 291 293 296 296 301 306 304 303 299 293 286 273 268 280 278 247 226 221 217 214 213 209 205 202 200 196 191 190
271 227 70 43 329 286 282 288 293 282 260 254 69 301 280 189 178 177 162 174 173 170 172 154 154 154 129 102 62 19 345 338 333 332 337 341 345 344 339 337 335 330 325 323 324 326 327 324 321 320 322 322 321 318 314 312 315 315 312 307 302 298 295 293 290 290 289 288 290 289 290 293 294 296 303 305 304 303 295 290 282 268 269 279 262 234 225 223 220 215 212 209 205 201 197 193 190
234 211 129 56 279 264 259 261 253 249 271 276 237 226 263 264 221 179 167 173 176 179 173 153 163 156 117 98 59 8 342 338 336 339 343 347 348 341 334 331 331 329 326 323 322 323 324 323 321 320 321 321 320 318 313 311 314 315 310 305 300 297 294 293 292 290 289 288 287 287 287 289 291 291 297 305 303 304 301 291 288 279 266 268 275 255 235 227 224 219 216 214 209 204 201 197 192
203 210 200 223 246 249 247 248 247 252 275 272 223 195 252 264 216 156 162 173 185 182 171 164 158 137 112 103 41 356 341 341 344 347 349 349 345 337 331 328 326 327 325 321 320 321 323 323 320 320 320 320 321 319 314 309 311 313 309 304 302 298 295 294 293 289 287 287 286 285 285 284 287 286 288 300 303 300 304 296 288 286 274 265 271 281 260 235 224 219 216 211 207 205 204 202 195
295 320 278 249 239 238 236 233 244 255 258 264 243 186 221 271 168 147 168 184 191 182 167 159 142 124 114 91 21 347 347 351 351 351 349 346 338 332 329 326 325 326 324 323 323 323 323 322 320 320 320 320 319 317 312 309 312 314 309 303 302 300 299 298 295 291 287 285 285 285 284 281 281 282 282 293 300 298 302 304 292 286 284 274 266 280 286 248 228 223 217 210 207 205 205 204 200
350 334 288 278 253 240 226 213 225 262 253 263 260 197 207 262 176 162 190 187 174 172 158 145 136 126 118 70 6 353 357 354 352 351 347 339 331 329 328 326 327 326 325 325 325 325 325 323 321 319 319 320 318 315 314 315 315 313 307 304 302 298 297 298 296 295 293 288 285 283 284 281 277 278 282 289 295 297 298 303 301 287 285 285 270 268 289 271 237 226 219 213 209 207 206 206 202
25 320 294 315 294 256 239 207 170 231 250 274 11 20 219 247 229 166 181 131 140 156 149 139 136 126 108 38 3 0 357 354 353 349 341 334 329 328 328 327 327 325 325 325 325 324 324 325 322 319 319 320 319 318 318 319 316 312 310 309 307 302 297 297 295 293 294 295 294 289 285 280 275 276 280 285 292 296 298 301 304 294 285 288 278 264 273 287 257 228 217 214 210 207 208 206 203
173 244 286 312 327 314 284 307 162 229 246 174 76 35 289 243 257 188 169 144 124 129 126 126 129 116 78 24 6 358 355 354 351 344 337 332 329 327 327 328 327 325 326 326 324 323 323 324 323 321 320 320 321 321 320 319 316 313 311 309 309 307 301 299 298 294 292 292 295 296 292 281 274 276 277 280 290 294 296 300 303 303 293 287 284 271 264 282 280 236 214 209 207 205 207 207 205
191 210 194 200 334 315 279 269 243 250 242 184 105 23 289 245 265 206 164 142 121 119 120 120 114 94 55 23 3 354 356 354 346 340 336 331 327 325 327 328 328 326 326 326 325 324 323 323 323 322 321 321 323 323 320 319 316 313 311 308 306 304 301 299 298 296 294 292 292 294 297 288 275 274 277 279 288 292 293 299 302 305 301 288 285 279 267 271 285 255 220 208 204 204 205 206 205
210 181 130 169 155 231 258 258 244 274 279 245 213 353 248 218 282 154 130 123 123 126 129 121 106 90 55 21 4 357 356 350 341 337 334 329 326 325 325 325 326 325 324 325 325 325 324 323 324 323 321 320 322 323 322 320 317 313 310 308 305 302 301 301 298 295 291 291 293 288 290 296 285 276 276 279 283 288 292 296 300 303 303 294 283 281 275 265 276 276 235 214 211 208 205 205 203
245 89 85 199 188 219 261 271 200 271 301 273 212 224 217 153 75 109 118 124 132 140 143 129 104 74 42 16 6 360 353 346 340 335 331 328 325 325 325 324 325 324 323 324 325 325 324 323 324 324 322 321 322 323 322 320 317 315 312 307 304 301 299 302 302 298 289 282 287 286 284 294 300 289 279 278 280 284 289 292 297 301 301 299 287 279 278 263 264 283 248 217 218 216 205 202 202
115 82 151 231 200 147 261 299 1 64 298 274 194 249 264 128 134 138 133 142 151 154 147 125 94 46 32 15 4 357 351 344 339 335 329 326 325 326 326 325 323 323 323 325 325 324 323 322 323 324 323 322 323 322 321 319 316 315 313 307 304 302 300 301 303 303 299 284 278 283 284 286 296 302 291 281 279 280 285 288 292 298 299 299 294 280 278 268 262 280 259 216 213 216 206 202 201
127 170 199 209 27 83 133 290 359 37 271 264 180 234 245 178 211 180 156 171 172 157 130 114 94 47 23 7 1 352 346 340 336 335 329 325 325 323 323 323 321 321 323 325 324 323 320 320 323 324 322 321 322 321 320 318 316 314 314 309 305 304 302 303 304 303 305 295 281 284 290 284 284 300 306 292 281 276 280 286 287 294 298 296 297 286 279 277 266 273 271 224 208 209 204 200 200
123 197 228 97 139 236 139 157 242 241 266 273 247 246 231 195 202 178 181 192 171 128 98 95 52 30 16 2 354 344 340 337 335 333 326 323 323 321 322 322 319 320 324 324 323 322 319 320 324 325 323 321 321 321 320 319 317 315 314 309 305 304 304 304 304 304 306 301 290 288 289 283 279 290 305 304 291 277 275 284 285 288 295 293 295 290 281 282 269 266 275 243 211 210 208 200 199
77 16 319 102 173 210 169 155 185 228 266 281 286 282 251 191 190 166 174 174 136 112 91 94 19 14 11 356 346 339 337 336 334 329 324 323 322 322 322 320 318 320 323 323 322 322 323 324 327 327 324 323 322 323 322 319 317 316 314 311 306 305 306 305 304 304 306 302 296 291 284 280 280 283 292 304 303 286 275 281 285 286 290 289 291 291 282 282 274 265 274 253 216 213 212 202 199
148 181 215 205 183 160 220 227 155 202 253 269 285 285 265 164 164 129 133 131 128 130 130 148 84 19 9 349 340 338 336 334 332 327 323 323 322 322 323 319 319 321 323 324 323 324 326 328 328 327 323 322 323 323 322 319 316 315 315 313 309 306 306 307 306 302 303 302 298 294 286 283 282 279 280 292 303 298 284 280 283 285 287 286 287 290 282 278 273 265 272 262 220 207 207 202 199
186 200 199 203 193 155 230 252 184 175 239 228 258 274 267 203 208 125 117 133 138 126 146 191 124 30 360 344 340 337 335 333 329 325 323 323 323 323 323 321 321 323 324 324 323 326 328 326 326 326 324 322 322 322 322 320 317 314 313 312 310 308 306 307 308 303 300 301 300 297 292 287 282 275 273 281 291 299 293 283 281 281 283 284 285 287 283 273 269 263 268 270 234 209 209 207 199